Back to catalog

DELTA 1 DEB

AliveLEO
NORAD 42589·DEBRIS·🇺🇸 United States

Launched Nov 6, 1973 from Vandenberg Space Force Base

Loading…

Next Passes (next 24 hours)

TLE

FreshSource: Space-Track

Epoch: Sep 13, 2026, 09:03 UTC

1 42589U 73086JD  26256.37738690  .00000252  00000-0  73003-3 0  9991
2 42589 102.5827  87.3676 0316965  80.7965 282.8839 13.06657918611393

Track DELTA 1 DEB in real time with AllMySat

Download on the App Store